OPS 4682 DEB, 27545

Orbit data source: Space-Track

OPS 4682 DEB, 27545 is space debris in LEO originally from a launch on Sat, 03 Apr 1965 UTC launched from the Air Force Western Test Range (AFWTR). Debris objects in space refer to the collection of defunct objects orbiting the Earth. Examples of debris include non-operational satellites, rocket bodies, and fragments generated from explosions, collisions, or faulty payload assembly.

Loading next visibility...
Identifier
27545, 1965-027BH
Orbit
LEO
Country
Flag of USUS
Related business
Manufacturer
Unknown
Mission
Spacecraft
Bus & Motor
Unknown
Mass
Unknown
Launch date (UTC)
1965-04-03 (61 years ago)
Launch vehicle
Unknown
Launch site
Air Force Western Test Range (AFWTR)
Object type
Payload
Rocket body
Debris
Shape & HBR
Unknown shape, 0.1 m
Radar Cross Section
Small (<0.1 m²)

Expand to show TLE details & history
Last TLE update: 15 hours ago

TLE from 15 hours ago
0 OPS 4682 DEB
1 27545U 65027BH  26100.22145856  .00001071  00000-0  37791-2 0  9993
2 27545  90.2489   5.7978 0025874  52.0154 102.8488 12.95193449146454
Epoch: 2026-04-10T05:18Z
TLE epoch observation values (Epoch: 2026-04-10T05:18:54.019Z)
Latitude
24.87111°
Longitude
-92.2707°
Altitude
1,288.436 km
Speed
7.212 km/s
True Right ascension
12h 23m 39s
True Declination
24° 44' 57"
Sunlit
Object was in full shadow at epoch
Visualization orbit readout
Latitude
Unknown
Longitude
Unknown
Altitude
Unknown
Speed
Unknown
Apparent Right ascension
Unknown
Apparent Declination
Unknown
Sunlit
N/A
Visualization observer readout
Local Sidereal Time
02:19:10
Azimuth
Unknown
Elevation
Unknown
Doppler factor
Unknown
Orbital elements
Apogee altitude
1,297.921 km
Perigee altitude
1,258.302 km
Semi-major axis
7,656.248 km
Eccentricity
0.00259
Inclination
90.2489°
RAAN
5.7978°
Arg. of periapsis
52.0154°
True anomaly
103.13766°
Mean anomaly
102.8488°
Eccentric anomaly
102.99325°
Mean motion
3.23981 °/min
Orbital period
111.12 mins
BSTAR
0.0037791
Loading maneuver chart data...
Computing Atmospheric mass density...
Loading historical data...
Loading historical data...
Loading historical data...
Loading historical data...
Loading historical data...
Loading historical data...
Loading historical data...

Documentation

Showing up to 5 results
|